Find Starlink 30758

NORAD ID: 58133 Int'l Des: 2023-162 Owner: SPXS Country: US Constellation: starlink operational
LEOCIRCULAR

当前视图

正在加载3D地球...

About Starlink 30758

Starlink 30758 (NORAD 58133) is a starlink constellation satellite (v2 mini) launched Oct 22, 2023 by SPXS of US. It operates in LEO, CIRCULAR orbit with a mass of 730.00 kg.

即将过境

Passes for default location (London). Set your location on the main map for personalized predictions.

高度历史

Loading altitude history...

两行轨道根数

1 58133U 23162R 26237.11367008 .00000275 00000-0 19531-4 0 9997
2 58133 43.0038 258.0628 0001773 275.0352 85.0298 15.27575432158101
Epoch: Aug 25, 2026 • Age: 22 hours

当前状态

高度 487.2 km
远地点 / 近地点 N/A
速度 7.63 km/s
星下点 42.63°N, 18.3°W
发射日期 Oct 22, 2023
运行时间 2.8 years
类型 internet

技术详情

分类 Payload
质量 730.00 kg
干质量 700.00 kg
总质量 730.00 kg
长度 0.30 m
直径 4.10 m
跨度 29.00 m
形状 Box + pan
制造商 SPXS
平台类型 Starlink V2M
阶段状态 In Orbit
所有者/国家 SPXS/US

Most Searched